Terug naar catalogus

NOAA 17 DEB

ActiefPO
NORAD 48179·DEBRIS·🇺🇸 United States

Gelanceerd Jun 24, 2002 vanaf Vandenberg Space Force Base

Loading…

Volgende Passages (komende 24 uur)

TLE

VersSource: Space-Track

Epoch: Sep 14, 2026, 08:41 UTC

1 48179U 02032U   26257.36226784  .00001585  00000-0  39753-3 0  9995
2 48179  98.8236 307.4071 0038477 101.3085 259.2436 14.52401669288542

Volg NOAA 17 DEB in realtime met AllMySat

Download on the App Store